{"data":{"norad_id":64845,"epoch":"2026-09-20T14:00:38.505600Z","epoch_age_seconds":116947,"freshness":"FRESH","line1":"1 64845U 25152D   26263.58377900  .00009114  00000+0  28422-3 0  9995","line2":"2 64845  97.2820 114.0916 0000573  66.9141 293.2162 15.33452612 64839","mean_motion":15.33452612,"eccentricity":5.73e-5,"inclination_deg":97.282,"raan_deg":114.0916,"arg_perigee_deg":66.9141,"mean_anomaly_deg":293.2162,"bstar":0.00028422,"rev_number":6483,"period_min":93.905738510034,"perigee_km":465.12838503904,"apogee_km":465.91266819159,"semimajor_km":6843.6575266153,"source":"CELESTRAK","updated_at":"2026-09-21T09:00:35.448903Z"}}